sat.trackr.live / text

‹ back to catalog

KUIPER-00489

NORAD 68880 · 2026-095S

PAYLOAD ACTIVE UNKNOWN

§ Identity

Operator
Country
US
Launch date
2026-04-28
Launch site
AFETR
Launch vehicle
Mass (kg)
RCS (m²)

External: N2YO · Heavens-Above · Gunter

§ Orbital elements

Epoch: 2026-05-24T23:12:39.384864Z

Period
93.75 min
Inclination
51.8769°
Eccentricity
0.0010012
Mean motion
15.35962765 rev/d
Perigee alt
451.2 km
Apogee alt
464.9 km
Semi-major
6,836.2 km
B*
7.4409e-4
RAAN
354.8985°
Arg perigee
222.6579°
Mean anomaly
137.3630°
Rev number
415

§ Raw data

KUIPER-004891 68880U 26095S   26144.96712251  .00026197  00000+0  74409-3 0  99932 68880  51.8769 354.8985 0010012 222.6579 137.3630 15.35962765  4159

JSON: /api/v1/satellites/68880 · /tle

For live sub-satellite position, see the globe view (requires WebGL).

§ Visibility from observer

Set your observer location to see the next 7 days of passes ≥ 10°. The values pass through the URL so the page stays shareable.

No JS? Fill the form by hand. The geolocation button needs JavaScript.